TimeEDT,TemperatureF,Dew PointF,Humidity,Sea Level PressureIn,VisibilityMPH,Wind Direction,Wind SpeedMPH,Gust SpeedMPH,PrecipitationIn,Events,Conditions,WindDirDegrees,DateUTC
12:51 AM,42.1,30.9,65,30.24,10.0,South,11.5,20.7,N/A,,Mostly Cloudy,180,2013-03-11 04:51:00
1:51 AM,39.9,30.0,68,30.22,10.0,South,15.0,21.9,N/A,,Mostly Cloudy,180,2013-03-11 05:51:00
2:51 AM,39.0,30.0,70,30.22,10.0,South,11.5,19.6,N/A,,Scattered Clouds,180,2013-03-11 06:51:00
3:51 AM,37.9,30.0,73,30.19,10.0,South,10.4,-,N/A,,Mostly Cloudy,170,2013-03-11 07:51:00
4:51 AM,37.0,30.0,76,30.19,10.0,South,12.7,21.9,N/A,,Mostly Cloudy,170,2013-03-11 08:51:00
5:51 AM,37.4,30.2,75,30.19,10.0,South,12.7,19.6,N/A,,Scattered Clouds,180,2013-03-11 09:51:00
6:51 AM,36.0,30.0,79,30.19,10.0,SSE,8.1,19.6,N/A,,Mostly Cloudy,160,2013-03-11 10:51:00
7:51 AM,37.0,30.9,79,30.17,10.0,South,12.7,24.2,N/A,,Mostly Cloudy,170,2013-03-11 11:51:00
8:51 AM,37.9,32.0,79,30.18,10.0,SSE,15.0,20.7,N/A,,Overcast,160,2013-03-11 12:51:00
9:12 AM,37.4,32.0,81,30.18,10.0,South,15.0,25.3,N/A,,Overcast,180,2013-03-11 13:12:00
9:51 AM,39.9,33.1,77,30.19,10.0,South,11.5,20.7,N/A,,Overcast,170,2013-03-11 13:51:00
10:07 AM,41.0,33.8,76,30.19,10.0,South,15.0,20.7,N/A,,Overcast,180,2013-03-11 14:07:00
10:51 AM,42.1,35.1,76,30.18,10.0,South,13.8,18.4,N/A,,Overcast,170,2013-03-11 14:51:00
11:35 AM,42.8,35.6,76,30.18,10.0,South,15.0,26.5,N/A,,Overcast,170,2013-03-11 15:35:00
11:51 AM,43.0,35.1,74,30.18,10.0,South,9.2,-,N/A,,Overcast,170,2013-03-11 15:51:00
12:51 PM,45.0,35.1,68,30.17,10.0,South,13.8,19.6,N/A,,Overcast,170,2013-03-11 16:51:00
1:51 PM,46.0,36.0,68,30.15,10.0,South,9.2,18.4,N/A,,Overcast,180,2013-03-11 17:51:00
2:51 PM,48.0,35.1,61,30.12,10.0,South,9.2,-,N/A,,Overcast,180,2013-03-11 18:51:00
3:51 PM,48.0,35.1,61,30.10,10.0,South,9.2,-,N/A,,Overcast,170,2013-03-11 19:51:00
4:51 PM,48.9,34.0,56,30.06,10.0,SSE,5.8,18.4,N/A,,Overcast,150,2013-03-11 20:51:00
5:51 PM,48.9,34.0,56,30.05,10.0,South,13.8,19.6,N/A,,Overcast,170,2013-03-11 21:51:00
6:51 PM,48.0,36.0,63,30.05,10.0,South,9.2,-,N/A,,Overcast,180,2013-03-11 22:51:00
7:51 PM,48.0,36.0,63,30.04,10.0,South,13.8,21.9,N/A,,Overcast,170,2013-03-11 23:51:00
8:51 PM,48.0,37.0,66,30.04,10.0,SSE,20.7,29.9,N/A,,Overcast,160,2013-03-12 00:51:00
9:51 PM,46.9,37.9,71,30.03,10.0,South,17.3,32.2,N/A,,Overcast,170,2013-03-12 01:51:00
10:32 PM,46.4,39.2,76,30.03,10.0,South,18.4,31.1,N/A,,Overcast,180,2013-03-12 02:32:00
10:51 PM,46.9,39.0,74,30.02,10.0,SSE,16.1,25.3,N/A,,Overcast,160,2013-03-12 02:51:00
11:51 PM,46.9,39.9,77,29.99,10.0,South,15.0,23.0,N/A,,Overcast,170,2013-03-12 03:51:00